Regional Weather Roundup
Issued by NWS

Home | Current Version | Previous Version | Text Only | Print | Product List | Glossary On
Versions: 1 2 3 4 5 6 7 8 9 10 11 12 13 14 15 16 17 18 19 20 21 22 23 24 25 26 27 28 29 30 31 32 33 34 35 36 37 38 39 40 41 42 43 44 45 46 47 48 49 50
491
ASUS43 KLOT 010308
RWRIL

ILLINOIS REGIONAL WEATHER ROUNDUP
NATIONAL WEATHER SERVICE CHICAGO/ROMEOVILLE IL
1000 PM CDT SAT APR 30 2016

NOTE: "FAIR" INDICATES FEW OR NO CLOUDS BELOW 12,000 FEET WITH NO
SIGNIFICANT WEATHER AND/OR OBSTRUCTIONS TO VISIBILITY.

* THESE STATIONS ARE NOT UNDER NWS QUALITY CONTROL. THEY ALSO MAY NOT
  REPORT WEATHER SUCH AS PRECIPITATION OR FOG.

ILZ001-002-007-009-015-016-024-010400-
NORTHWEST ILLINOIS

CITY           SKY/WX    TMP DP  RH WIND       PRES   REMARKS
MOLINE         CLOUDY    47  43  86 NE17      29.88F
STERLING*      CLOUDY    45  45 100 NE14      29.91S
SAVANNA*       CLOUDY    44  42  92 NE14G25   29.93S
$$

ILZ003-004-008-010-011-017-018-010400-
NORTH CENTRAL ILLINOIS

CITY           SKY/WX    TMP DP  RH WIND       PRES   REMARKS
ROCKFORD       CLOUDY    45  42  89 NE16      29.95S
FREEPORT*      CLOUDY    43  41  93 NE14      29.96S
ROCHELLE*      CLOUDY    45  44  97 NE17      29.92S FOG
DE KALB*       CLOUDY    45  44  96 NE16      29.93S
$$

ILZ005-006-012>014-019>023-010400-
NORTHEAST ILLINOIS

CITY           SKY/WX    TMP DP  RH WIND       PRES   REMARKS
CHICAGO-OHARE  LGT RAIN  45  44  97 NE14      29.94R FOG
CHICAGO-MIDWAY DRIZZLE   47  44  90 NE13      29.93R FOG
AURORA         CLOUDY    47  44  90 NE15G23   29.91S FOG
LANSING*       DRIZZLE   46  46  99 NE10      29.91S
JOLIET*        CLOUDY    48  47  95 NE13      29.90S FOG
WAUKEGAN       LGT RAIN  44  43  96 NE14G24   29.95F FOG
DUPAGE AIRPORT LGT RAIN  46  43  89 NE14G22   29.92R FOG
KANKAKEE*      CLOUDY    49  48  96 NE9       29.89R
WHEELING       CLOUDY    45  43  93 NE15G25   29.96S FOG
MORRIS*        CLOUDY    47  46  95 NE6       29.89S FOG
ROMEOVILLE*    DRIZZLE   46  44  93 NE15      29.91R
NORTHERLY ISL    N/A     44  43  96 N16         N/A
NORTHERLY ISL    N/A     44  43  96 N16         N/A
$$

LMZ740>746-010400-
SOUTHERN LAKE MICHIGAN

STATION/POSITION SKY/WX   TEMP    WIND        PRES    VSBY  WAVE
                          AIR SEA DIR/SP/G                  HT/PER
                          (F)     (DEG/KT/KT) (MB)    (MI)  (FT/S)
SOUTHERN BUOY              43 40   40/ 14/ 17 1015.1R         2/ 3
HARRISON CRIB              44      40/ 21/ 23   N/A
BURNHAM HARBOR             44      40/ 14/ 18   N/A
CALUMET HARBOR             45      20/ 13/ 18 1012.8R
BURNS HARBOR               48      50/ 14/ 17 1013.2R
MICHIGAN CITY              48      30/ 12/ 13   N/A
ST. JOSEPH                 49 47                N/A           2/ 3
$$

ILZ025>027-034>036-040-047-049-050-058-095>099-010400-
WEST-CENTRAL ILLINOIS

CITY           SKY/WX    TMP DP  RH WIND       PRES   REMARKS
QUINCY         CLOUDY    61  60  97 N5        29.82R
GALESBURG*     CLOUDY    47  47  97 NE13      29.86S
MACOMB*        CLOUDY    50  50 100 NE18      29.85S FOG
JACKSONVILLE*  LGT RAIN  62  60  96 E8        29.79F
PITTSFIELD*    LGT RAIN  57  55  95 S3        29.83S
$$

ILZ028>032-037-038-041>044-048-051>054-059>061-010400-
CENTRAL ILLINOIS

CITY           SKY/WX    TMP DP  RH WIND       PRES   REMARKS
PONTIAC        CLOUDY    50  50 100 NE15      29.88R
BLOOMINGTON    FOG       52  52 100 NE13      29.86S VSB 1/4
DECATUR        FOG       57  55  93 E6        29.82F VSB 1/4
PEORIA         CLOUDY    51  49  92 NE17      29.84F FOG
LACON*         CLOUDY    47  46  96 NE8       29.87S FOG
LINCOLN*       CLOUDY    59  59 100 NE5       29.82S FOG
SPRINGFIELD    MOCLDY    63  61  93 N5        29.81R FOG
TAYLORVILLE    CLOUDY    64  61  88 CALM      29.82R
$$

ILZ033-039-045-046-055>057-062-063-010400-
EAST-CENTRAL ILLINOIS

CITY           SKY/WX    TMP DP  RH WIND       PRES   REMARKS
CHAMPAIGN      FOG       58  57  97 S3        29.83S VSB 1/4
RANTOUL*       FOG       60  60  99 NE6       29.84S VSB 1/2
MATTOON        CLOUDY    62  60  93 S6        29.83S
PARIS*         CLOUDY    63  62  96 S6        29.85S
$$

ILZ079-100>102-010400-
SOUTHWEST ILLINOIS

CITY           SKY/WX    TMP DP  RH WIND       PRES   REMARKS
ALTON          CLOUDY    59  55  88 SE7       29.82
BELLEVILLE     TSTM      57  57 100 S10       29.84R
CAHOKIA*       TSTM      59  55  87 E7        29.82R
SPARTA*        CLOUDY    65  62  88 SE3       29.84R
$$

ILZ064>066-069>071-074>076-080>082-084>086-088>090-092>094-010400-
SOUTH-CENTRAL ILLINOIS

CITY           SKY/WX    TMP DP  RH WIND       PRES   REMARKS
CARBONDALE     MOCLDY    64  60  87 E6        29.82S
CAIRO*         PTCLDY    66  63  88 SE7       29.82S
EFFINGHAM*     MOCLDY    65  64  98 SE3       29.85R
MARION         PTCLDY    64  63  94 SE5       29.84R
MT. VERNON     CLOUDY    63  57  82 CALM      29.85R
CENTRALIA*     CLOUDY    67  63  89 CALM      29.84R
SALEM*         CLOUDY    66  62  85 SE3       29.84R
METROPOLIS*    PTCLDY    66  64  95 CALM      29.85R
$$

ILZ067-068-072-073-078-083-087-091-010400-
SOUTHEAST ILLINOIS

CITY           SKY/WX    TMP DP  RH WIND       PRES   REMARKS
LAWRENCEVILLE  LGT RAIN  65  65 100 S6        29.86R
FLORA*         CLOUDY    66  64  91 S6        29.84S
FAIRFIELD*     CLOUDY    66  64  91 CALM      29.83F
HARRISBURG*    PTCLDY    65  64  97 SE6       29.85S
ROBINSON*      RAIN      64  63  98 S9        29.86R
CARMI*         CLOUDY    65  64  97 SE5       29.84F
$$

ABBREVIATIONS USED IN REMARKS
   TC - TEMPERATURE IN CELSIUS
  WCI - WIND CHILL INDEX
   HX - HEAT INDEX
  VSB - VISIBILITY
$$





USA.gov is the U.S. government's official web portal to all federal, state and local government web resources and services.